Regional Weather Roundup
Issued by NWS

Home | Current Version | Previous Version | Text Only | Print | Product List | Glossary On
Versions: 1 2 3 4 5 6 7 8 9 10 11 12 13 14 15 16 17 18 19 20 21 22 23 24 25 26 27 28 29 30 31 32 33 34 35 36 37 38 39 40 41 42 43 44 45 46 47 48 49 50
000
ASUS43 KDMX 300508
RWRIA

WEATHER ROUNDUP FOR IOWA
NATIONAL WEATHER SERVICE DES MOINES IA
1200 AM CDT FRI SEP 30 2016

NOTE: "FAIR" INDICATES FEW OR NO CLOUDS BELOW 12,000 FEET WITH NO
SIGNIFICANT WEATHER AND/OR OBSTRUCTIONS TO VISIBILITY.

* - THESE STATIONS ARE NOT NWS STATIONS...THUS NOT UNDER NWS
QUALITY CONTROL.  THEY ALSO DO NOT REPORT WEATHER SUCH
AS PRECIPITATION OR FOG.

IAZ001>003-012>014-020>022-031>034-043>046-300600-
   NORTHWEST IOWA

CITY           SKY/WX    TMP DP  RH WIND       PRES   REMARKS
CARROLL *      PTCLDY    50  46  87 CALM      30.35S
CHEROKEE *     PTCLDY    47  47 100 CALM      30.37S
DENISON *      CLEAR     46  45  93 CALM      30.33F
LE MARS *      CLEAR     48  46  93 CALM      30.37S
SHELDON *      CLEAR     46  46 100 E5        30.36S
SIOUX CITY     CLEAR     48  45  89 SE3       30.36R
SPENCER        CLEAR     43  42  97 NE3       30.37S
STORM LAKE *   CLEAR     55  46  71 E8        30.37S
$$

IAZ055>058-069>071-079>083-090>094-300600-
   SOUTHWEST IOWA

CITY           SKY/WX    TMP DP  RH WIND       PRES   REMARKS
ATLANTIC *     CLEAR     48  46  93 N3        30.34S
AUDUBON *      CLEAR     54  48  82 N3        30.35F
CLARINDA *       N/A     50  48  93 MISG      30.34S FOG
COUNCIL BLFS * CLEAR     57  46  67 NE8       30.34S
CRESTON *      CLEAR     55  48  76 N9        30.33S
HARLAN  *      CLEAR     50  46  87 CALM      30.38S
LAMONI         CLEAR     54  48  80 N8        30.30S
RED OAK *      CLEAR     50  46  87 CALM      30.33F
SHENANDOAH *   CLEAR     50  48  93 NE5       30.33F
$$

IAZ047>049-059>061-072>074-084-300600-
   CENTRAL IOWA

CITY           SKY/WX    TMP DP  RH WIND       PRES   REMARKS
AMES           CLEAR     56  50  80 NE5       30.33S
ANKENY *         N/A    N/A N/A N/A MISG        N/A
BOONE *        CLEAR     54  48  82 NE7       30.32F HAZE
CHARITON *       N/A     54  48  82 N6        30.29F
DES MOINES     CLEAR     60  49  66 NE9       30.31S
GRINNELL*      CLEAR     58  50  75 N7        30.31F
KNOXVILLE *    CLEAR     59  50  72 NE7       30.28F
MARSHALLTOWN   CLEAR     55  50  83 NE9       30.31F
NEWTON *       CLEAR     57  50  77 N9        30.30F
PELLA *        CLEAR     57  50  77 NE5       30.31S
PERRY *          N/A     52  49  90 N6        30.33F
$$

IAZ004>006-015-016-023>025-035-036-300600-
   NORTH CENTRAL IOWA

CITY           SKY/WX    TMP DP  RH WIND       PRES   REMARKS
ALGONA *       CLEAR     50  46  87 NE5       30.37S
CLARION *      CLEAR     50  50 100 NE6       30.35F
ESTHERVILLE    CLEAR     46  45  96 NE7       30.37F
FORT DODGE *   CLEAR     52  45  76 CALM      30.36S
MASON CITY     CLEAR     48  45  89 N3        30.37F
FOREST CITY *    N/A     50  46  87 CALM      30.36F
WEBSTER CITY * CLEAR     50  48  93 N6        30.33S
IOWA FALLS *     N/A     56  50  80 N5        30.35S
$$

IAZ007>011-017>019-026>030-037>042-050>054-066-300600-
   NORTHEAST IOWA

CITY           SKY/WX    TMP DP  RH WIND       PRES   REMARKS
CEDAR RAPIDS   CLEAR     55  50  83 N7        30.28F
CHARLES CITY * CLEAR     54  50  87 N6        30.35F
CLINTON *      CLEAR     55  51  86 N7        30.25F
DECORAH *      CLEAR     55  54  94 N5        30.34S
DUBUQUE        CLEAR     56  46  69 NE9       30.29S
MONTICELLO *   CLEAR     55  46  71 NE3       30.28F
OELWEIN *      CLEAR     54  52  94 NE7       30.33S
WATERLOO       CLEAR     54  50  86 N7        30.32S
$$

IAZ064-065-067-068-078-300600-
   EAST CENTRAL IOWA

CITY           SKY/WX    TMP DP  RH WIND       PRES   REMARKS
DAVENPORT      CLEAR     56  51  84 N8        30.25F
IOWA CITY      CLEAR     59  50  72 N7        30.29S
MT. PLEASANT * CLEAR     60  54  80 N7        30.25F
MUSCATINE *    CLEAR     59  52  77 N6        30.25F
QUAD CITIES    PTCLDY    62  53  72 N6        30.23F
$$

IAZ062-063-075>077-085>089-095>099-300600-
   SOUTHEAST IOWA

CITY           SKY/WX    TMP DP  RH WIND       PRES   REMARKS
BURLINGTON     PTCLDY    60  54  80 N7        30.23F
FAIRFIELD *    CLEAR     57  48  72 N6        30.26F
FORT MADISON *   N/A     57  54  88 N5        30.25F
KEOKUK *       MOCLDY    63  55  77 N5        30.23F
OSKALOOSA *      N/A     56  50  79 N8        30.28F
OTTUMWA        CLEAR     58  49  72 N7        30.28S
WASHINGTON *     N/A    N/A N/A N/A MISG        N/A
$$

ABBREVIATIONS USED IN REMARKS
   TC - TEMPERATURES IN CELSIUS
  WCI - WIND CHILL INDEX
   HX - HEAT INDEX
  VSB - VISIBILITY
$$




USA.gov is the U.S. government's official web portal to all federal, state and local government web resources and services.